Weather History for KGTF - January, 2014

Change the Weather History Date:

Tuesday, January 21, 2014

  Actual Average Record
Temperature  
Mean Temperature 37 °F 26 °F  
Max Temperature 46 °F 36 °F 57 °F (1994)
Min Temperature 27 °F 15 °F -32 °F (1943)
Degree Days  
Heating Degree Days 28 39  
Month to date heating degree days 683 843  
Since 1 July heating degree days 3837 4060  
Cooling Degree Days 0 0  
Month to date cooling degree days 0 0  
Year to date cooling degree days 0 0  
Moisture  
Dew Point 17 °F    
Average Humidity 52    
Maximum Humidity 78    
Minimum Humidity 25    
Precipitation  
Precipitation 0.00 in 0.01 in 0.68 in (1943)
Month to date precipitation 0.44 0.35  
Year to date precipitation 0.44 0.35  
Snow  
Snow 0.00 in 0.30 in 9.60 in (1943)
Month to date snowfall 9.2 6.0  
Since 1 July snowfall 32.1 29.2  
Snow Depth 0.00 in    
Sea Level Pressure  
Sea Level Pressure 30.30 in    
Wind  
Wind Speed 7 mph (NNW)    
Max Wind Speed 22 mph    
Max Gust Speed 26 mph    
Visibility 10 miles    
Events      
T = Trace of Precipitation, MM = Missing Value Source: NWS Daily Summary

Daily Weather History Graph

Daily Weather History Graph

Search for Another Location

Airport or City:

Trip Planner

Search our weather history database for the weather conditions in past years. The results will help you decide how hot, cold, wet, or windy it might be!

Date:

Astronomy

Jan. 21, 2014 Rise Set
Actual Time 8:03 AM MST 5:10 PM MST
Civil Twilight 7:29 AM MST 5:44 PM MST
Nautical Twilight 6:52 AM MST 6:22 PM MST
Astronomical Twilight 6:15 AM MST 6:58 PM MST
Moon 11:13 PM MST (1/21) 10:10 AM MST (1/21)
Length of Visible Light 10h 14m
Length of Day
9h 06m
Waning Gibbous, 74% of the Moon is Illuminated
Jan 21
Waning Gibbous
Jan 23
Last Quarter
Jan 30
New
Feb 6
First Quarter
Feb 14
Full

Hourly Weather History & Observations

Time (MST) Temp. Windchill Dew Point Humidity Pressure Visibility Wind Dir Wind Speed Gust Speed Precip Events Conditions
12:53 AM 39.9 °F 31.4 °F 16.0 °F 38% 30.20 in 10.0 mi SW 16.1 mph - N/A   Clear
1:53 AM 39.9 °F 31.8 °F 16.0 °F 38% 30.20 in 10.0 mi SW 15.0 mph - N/A   Clear
2:53 AM 39.9 °F 31.8 °F 16.0 °F 38% 30.21 in 10.0 mi SW 15.0 mph - N/A   Clear
3:53 AM 37.9 °F 29.2 °F 16.0 °F 41% 30.23 in 10.0 mi SW 15.0 mph - N/A   Clear
4:53 AM 37.0 °F 28.5 °F 16.0 °F 42% 30.23 in 10.0 mi SSW 13.8 mph - N/A   Clear
5:53 AM 36.0 °F 28.5 °F 16.0 °F 44% 30.25 in 10.0 mi SW 10.4 mph - N/A   Clear
6:53 AM 32.0 °F 27.5 °F 15.1 °F 50% 30.30 in 10.0 mi NE 4.6 mph - N/A   Clear
7:53 AM 32.0 °F - 15.1 °F 50% 30.31 in 10.0 mi Calm Calm - N/A   Clear
8:53 AM 33.1 °F 27.7 °F 18.0 °F 54% 30.34 in 10.0 mi NW 5.8 mph - N/A   Clear
9:53 AM 37.9 °F 34.4 °F 15.1 °F 39% 30.33 in 10.0 mi WNW 4.6 mph - N/A   Clear
10:53 AM 41.0 °F 35.8 °F 14.0 °F 33% 30.35 in 10.0 mi North 8.1 mph - N/A   Clear
11:53 AM 43.0 °F 41.3 °F 14.0 °F 31% 30.32 in 10.0 mi Variable 3.5 mph - N/A   Clear
12:53 PM 45.0 °F - 12.0 °F 26% 30.29 in 10.0 mi Calm Calm - N/A   Clear
1:53 PM 46.0 °F 43.9 °F 15.1 °F 29% 30.27 in 10.0 mi Variable 4.6 mph - N/A   Clear
2:53 PM 45.0 °F 41.8 °F 10.9 °F 25% 30.26 in 10.0 mi NNE 5.8 mph - N/A   Clear
3:53 PM 44.1 °F 39.0 °F 12.0 °F 27% 30.27 in 10.0 mi NNE 9.2 mph - N/A   Clear
4:53 PM 37.9 °F 32.7 °F 15.1 °F 39% 30.31 in 10.0 mi NE 6.9 mph - N/A   Partly Cloudy
5:53 PM 37.9 °F 32.1 °F 21.9 °F 53% 30.33 in 10.0 mi NE 8.1 mph - N/A   Scattered Clouds
6:53 PM 34.0 °F 28.8 °F 21.0 °F 59% 30.35 in 10.0 mi NE 5.8 mph - N/A   Scattered Clouds
7:53 PM 32.0 °F 26.4 °F 21.9 °F 66% 30.38 in 10.0 mi NNE 5.8 mph - N/A   Mostly Cloudy
8:53 PM 34.0 °F 31.0 °F 23.0 °F 64% 30.38 in 10.0 mi ENE 3.5 mph - N/A   Overcast
9:53 PM 32.0 °F - 23.0 °F 69% 30.37 in 10.0 mi Calm Calm - N/A   Overcast
10:53 PM 30.9 °F 26.2 °F 24.1 °F 76% 30.36 in 10.0 mi SW 4.6 mph - N/A   Overcast
11:53 PM 30.9 °F 26.2 °F 25.0 °F 79% 30.36 in 10.0 mi North 4.6 mph - N/A   Overcast